Location: Boiro
(42.6475°N, 8.8834°W)
Time: 00:56:41
(UTC+02:00)

METEOR M2 - Visible Passes

Search period start: 19 April 2024 00:00
Search period end: 29 April 2024 00:00
Orbit: 818 x 826 km, 98.4° (Epoch: 18 April)

Date Brightness Start Highest point End Pass type
(mag) Time Alt. Az. Time Alt. Az. Time Alt. Az.
22 Apr ? 07:10:36 10° NE 07:14:45 22° E 07:18:52 10° SE visible
23 Apr ? 06:51:25 10° NE 06:54:21 15° E 06:57:17 10° ESE visible
28 Apr ? 06:50:45 10° NE 06:53:41 15° E 06:56:37 10° ESE visible
